Home   Weather   Pakistan   Karachi   Past weeks
Flag for Pakistan

Past Weather in Karachi, Sindh, Pakistan — Yesterday and Last 2 Weeks

Currently: 84 °F. Overcast. (Weather station: Karachi Airport, Pakistan). See more current weather

Past Weather in Karachi — Graph

°F

Karachi Temperature Yesterday

Maximum temperature yesterday: 86 °F (at 10:55 am)
Minimum temperature yesterday: 82 °F (at 2:55 am)
Average temperature yesterday: 84 °F

High & Low Weather Summary for the Past Weeks

 TemperatureHumidityPressure
High102 °F (Jul 14, 1:00 pm)94% (Jul 20, 10:00 am)29.65 "Hg (Jul 20, 10:00 am)
Low79 °F (Jul 15, 10:30 pm)33% (Jul 15, 2:30 pm)29.33 "Hg (Jul 22, 4:55 pm)
Average87 °F72%29.49 "Hg
* Reported Jul 13 6:25 pm — Jul 28 6:55 pm, Karachi. Weather by CustomWeather, © 2021

Note: Actual official high and low records may vary slightly from our data, if they occured in-between our weather recording intervals... More about our weather records

Karachi Weather History for the Previous 24 Hours

Scroll right to see more
 ConditionsComfort  
Time TempWeatherWind HumidityBarometerVisibility
6:55 pm
Wed, Jul 28
84 °FCloudy.23 mph74%29.39 "Hg2 mi
6:25 pm84 °FCloudy.22 mph74%29.39 "Hg2 mi
5:55 pm84 °FCloudy.23 mph74%29.39 "Hg2 mi
5:30 pm84 °FCloudy.21 mph74%29.39 "Hg2 mi
4:55 pm84 °FCloudy.23 mph74%29.36 "Hg2 mi
4:25 pm84 °FCloudy.25 mph74%29.39 "Hg2 mi
3:55 pm84 °FCloudy.17 mph74%29.39 "Hg2 mi
3:25 pm86 °FCloudy.23 mph70%29.39 "Hg2 mi
2:55 pm86 °FCloudy.23 mph70%29.39 "Hg2 mi
2:25 pm84 °FCloudy.20 mph79%29.39 "Hg2 mi
2:00 pm84 °FCloudy.23 mph79%29.39 "Hg2 mi
1:30 pm84 °FCloudy.23 mph79%29.42 "Hg2 mi
1:00 pm86 °FCloudy.23 mph75%29.42 "Hg2 mi
12:30 pm86 °FCloudy.23 mph75%29.42 "Hg2 mi
12:00 pm86 °FCloudy.20 mph75%29.42 "Hg2 mi
11:30 am86 °FCloudy.21 mph75%29.42 "Hg2 mi
10:30 am84 °FCloudy.20 mph79%29.42 "Hg2 mi
10:00 am84 °FBroken clouds.18 mph79%29.42 "Hg2 mi
9:30 am84 °FBroken clouds.14 mph79%29.42 "Hg2 mi
9:00 am84 °FBroken clouds.20 mph79%29.42 "Hg2 mi
8:55 am84 °FBroken clouds.20 mph79%29.42 "Hg2 mi
8:25 am84 °FBroken clouds.22 mph79%29.39 "Hg2 mi
8:00 am84 °FBroken clouds.18 mph79%29.39 "Hg2 mi
7:30 am82 °FBroken clouds.21 mph84%29.39 "Hg2 mi
7:00 am82 °FBroken clouds.22 mph84%29.39 "Hg2 mi
6:30 am82 °FBroken clouds.17 mph84%29.39 "Hg2 mi
6:00 am82 °FBroken clouds.17 mph84%29.39 "Hg2 mi
5:30 am82 °FPartly cloudy.17 mph84%29.39 "Hg2 mi
4:30 am82 °FPartly cloudy.16 mph84%29.36 "Hg2 mi
4:00 am84 °FPassing clouds.17 mph79%29.39 "Hg2 mi
3:30 am84 °FPassing clouds.16 mph79%29.39 "Hg2 mi
3:00 am82 °FPassing clouds.21 mph84%29.36 "Hg2 mi
2:30 am82 °FPassing clouds.24 mph84%29.36 "Hg2 mi
2:00 am82 °FPassing clouds.17 mph84%29.39 "Hg2 mi
1:30 am82 °FPassing clouds.17 mph84%29.39 "Hg2 mi
1:00 am82 °FPassing clouds.14 mph84%29.39 "Hg2 mi
12:00 am82 °FPassing clouds.14 mph84%29.45 "Hg2 mi
11:30 pm
Tue, Jul 27
84 °FPassing clouds.21 mph79%29.42 "Hg2 mi
11:00 pm84 °FPassing clouds.23 mph79%29.42 "Hg2 mi
10:30 pm84 °FPassing clouds.23 mph79%29.42 "Hg2 mi
10:00 pm84 °FPassing clouds.23 mph79%29.42 "Hg2 mi
9:30 pm84 °FOvercast.21 mph79%29.39 "Hg2 mi
8:55 pm84 °FOvercast.20 mph79%29.39 "Hg2 mi
8:25 pm84 °FOvercast.21 mph79%29.39 "Hg2 mi
Weather by CustomWeather, © 2021

See weather overview